Regional Weather Roundup
Issued by NWS

Home | Current Version | Previous Version | Text Only | Print | Product List | Glossary Off
Versions: 1 2 3 4 5 6 7 8 9 10 11 12 13 14 15 16 17 18 19 20 21 22 23 24 25 26 27 28 29 30 31 32 33 34 35 36 37 38 39 40 41 42 43 44 45 46 47 48 49 50

000
ASUS43 KOAX 251510
RWRNE

WEATHER ROUNDUP FOR NEBRASKA
NATIONAL WEATHER SERVICE OMAHA NE
900 AM CST TUE NOV 25 2014

NOTES: SATELLITE DATA IS BEING USED TO AUGMENT CLOUD COVER ABOVE
       12000 FEET.
       "FAIR" INDICATES FEW OR NO CLOUDS BELOW 12,000 FEET WITH NO
       SIGNIFICANT WEATHER AND/OR OBSTRUCTIONS TO VISIBILITY.

  * THESE STATIONS DO NOT REPORT WEATHER SUCH AS RAIN...SNOW OR FOG.

NEZ001>004-019>022-054>056-251600-
NEBRASKA PANHANDLE

CITY           SKY/WX    TMP DP  RH WIND       PRES   REMARKS
SCOTTSBLUFF    CLOUDY    29  21  72 S6        29.91F WCI  23
ALLIANCE       CLOUDY    30  17  58 SW12      29.90F WCI  20
CHADRON        CLOUDY    31  20  63 SW7       29.88S WCI  24
KIMBALL        CLOUDY    30  14  51 SW10      29.92S WCI  21
SIDNEY         CLOUDY    27  16  63 SW13      29.95F WCI  16
$$

NEZ057>060-069>072-079>082-251600-
SOUTHWEST NEBRASKA

CITY           SKY/WX    TMP DP  RH WIND       PRES   REMARKS
NORTH PLATTE   CLOUDY    22  18  85 CALM      30.03F
IMPERIAL       PTSUNNY   25  17  72 SW8       30.03F WCI  16
LEXINGTON      MOSUNNY   22  20  91 CALM      30.06F
MCCOOK         MOSUNNY   25  19  78 W9        30.08F WCI  15
OGALLALA       CLOUDY    23  20  87 W3        30.00F
$$

NEZ005>010-023>029-035>040-094-251600-
NORTH CENTRAL NEBRASKA

CITY           SKY/WX    TMP DP  RH WIND       PRES   REMARKS
VALENTINE      CLOUDY    25  22  88 CALM      29.93F
AINSWORTH      CLOUDY    26  22  86 S7        29.95F WCI  18
BROKEN BOW     PTSUNNY   24  20  84 CALM      30.03F
O`NEILL        SUNNY     28  26  91 SW6       30.00S WCI  21
ORD            MOSUNNY   25  20  81 CALM      30.03F
THEDFORD       CLOUDY    28  24  84 SW3       29.97F
$$

NEZ041-046>049-061>064-073>077-083>087-251600-
SOUTH CENTRAL NEBRASKA

CITY           SKY/WX    TMP DP  RH WIND       PRES   REMARKS
GRAND ISLAND   SUNNY     27  21  78 SW6       30.09F WCI  20
AURORA         SUNNY     26  23  86 SW6       30.09S WCI  20
HASTINGS       SUNNY     25  20  81 SW8       30.08F WCI  16
HEBRON         SUNNY     28  22  78 SW8       30.14F WCI  20
HOLDREGE       SUNNY     27  21  78 W9        30.08F WCI  18
KEARNEY *      SUNNY     25  19  80 SW8       30.09F WCI  16
YORK           SUNNY     27  23  86 SW10      30.10S WCI  17
$$

NEZ011>018-030>034-042>045-251600-
NORTHEAST NEBRASKA

CITY           SKY/WX    TMP DP  RH WIND       PRES   REMARKS
NORFOLK        SUNNY     25  18  74 CALM      30.05S
ALBION         SUNNY     24  19  83 CALM      30.05S
BLAIR          SUNNY     23  15  69 S6        30.10F WCI  16
COLUMBUS *     SUNNY     25  16  68 W3        30.10S
FREMONT        SUNNY     24  17  72 S6        30.11S WCI  17
TEKAMAH        SUNNY     21  12  68 S8        30.12F WCI  11
WAYNE          CLOUDY    22  17  80 S6        30.07S WCI  14
$$

NEZ050>053-065>068-078-088>093-251600-
SOUTHEAST NEBRASKA

CITY           SKY/WX    TMP DP  RH WIND       PRES   REMARKS
LINCOLN        MOSUNNY   23  17  78 S3        30.15F
OMAHA EPPLEY   MOSUNNY   24  13  62 S6        30.15S WCI  17
BEATRICE       SUNNY     24  18  78 S3        30.15F
FALLS CITY     SUNNY     25  12  58 SW6       30.19S WCI  18
NEBRASKA CITY  SUNNY     23  11  61 SW6       30.16S WCI  15
PLATTSMOUTH    SUNNY     24  12  59 SW5       30.14S WCI  18
$$

NEZ044-045-051>053-067-251600-
OMAHA AREA

CITY           SKY/WX    TMP DP  RH WIND       PRES   REMARKS
OMAHA EPPLEY   MOSUNNY   24  13  62 S6        30.15S WCI  17
BLAIR          SUNNY     23  15  69 S6        30.10F WCI  16
FREMONT        SUNNY     24  17  72 S6        30.11S WCI  17
MILLARD        SUNNY     24  14  64 S3        30.14F
OFFUTT AFB     SUNNY     22  14  69 S5        30.14S WCI  16
PLATTSMOUTH    SUNNY     24  12  59 SW5       30.14S WCI  18
WAHOO          FAIR      23  16  73 S3        30.12S
$$



USA.gov is the U.S. government's official web portal to all federal, state and local government web resources and services.